Regional Weather Roundup
Issued by NWS

Home | Current Version | Previous Version | Text Only | Print | Product List | Glossary Off
Versions: 1 2 3 4 5 6 7 8 9 10 11 12 13 14 15 16 17 18 19 20 21 22 23 24 25 26 27 28 29 30 31 32 33 34 35 36 37 38 39 40 41 42 43 44 45 46 47 48 49 50

000
ASUS45 KABQ 280601
RWRNM
WEATHER ROUNDUP FOR NEW MEXICO
NATIONAL WEATHER SERVICE ALBUQUERQUE NM
1100 PM MST SAT DEC 27 2014

NOTE: "FAIR" MEANS FEW OR NO CLOUDS BELOW 12,000 FEET AGL WITH NO
       SIGNIFICANT WEATHER OR OBSTRUCTIONS TO VISION.

      THIS PRODUCT IS RELEASED AS TWO VERSIONS.  ONE VERSION NEAR
      THE TOP OF THE HOUR CONTAINING PRELIMINARY DATA FROM ALBUQUERQUE
      AND OTHER STATIONS.  A FINAL VERSION WITH ADDITIONAL DATA IS
      ISSUED ABOUT 10 MINUTES AFTER THE HOUR.

NMZ501-503-504-510>518-280700-
NORTHWEST PLATEAU/NORTHCENTRAL MOUNTAINS

CITY           SKY/WX    TMP DP  RH WIND       PRES   REMARKS
FARMINGTON     CLEAR      4   0  83 NE6       30.29F WCI  -7
6HR MIN TEMP:   4; 6HR MAX TEMP:  23;

SANTA FE       PTCLDY    19   8  62 N15       30.20F WCI   5
6HR MIN TEMP:  16; 6HR MAX TEMP:  27;

TAOS           MOCLDY     0  -2  92 N6        30.21F WCI -12

$$
NMZ402-403-502-505>509-280700-
WESTCENTRAL MOUNTAINS/SOUTHWEST MOUNTAINS

CITY           SKY/WX    TMP DP  RH WIND       PRES   REMARKS
GALLUP         CLEAR      0  -4  83 CALM      30.28F
6HR MIN TEMP:   0; 6HR MAX TEMP:  24;

GRANTS         CLEAR     10   5  80 W3        30.29F
SILVER CITY    CLEAR     19  14  79 N6        30.28F WCI  11

$$
NMZ407-409-411-412-280700-
SOUTHERN DESERTS

CITY           SKY/WX    TMP DP  RH WIND       PRES   REMARKS
LORDSBURG      FAIR      25  23  93 CALM      30.29S
DEMING         CLEAR     25  22  88 W3        30.29S
6HR MIN TEMP:  25; 6HR MAX TEMP:  40;

HOLLOMAN AFB   CLEAR     24  17  74 NE6       30.27R WCI  17
ALAMOGORDO     CLEAR     30  14  51 NE7       30.27F WCI  23
T OR C         CLEAR     27  10  49 NW8       30.27S WCI  19
6HR MIN TEMP:  25; 6HR MAX TEMP:  39;


$$
NMZ519>523-280700-
CENTRAL VALLEYS/CENTRAL HIGHLANDS

CITY           SKY/WX    TMP DP  RH WIND       PRES   REMARKS
ALBUQUERQUE    CLEAR     25   9  50 N7        30.28F WCI  17
6HR MIN TEMP:  25; 6HR MAX TEMP:  35;

DOUBLE EAGLE   CLEAR     21   7  53 N12       30.27S WCI   9
MORIARTY ARPT  FAIR      21   4  47 W8        30.21F WCI  12
6HR MIN TEMP:  17; 6HR MAX TEMP:  26;

CLINES CORNERS PTCLDY    16   5  62 NW30      30.09F WCI  -4
6HR MIN TEMP:  12; 6HR MAX TEMP:  18;

BELEN          FAIR      20  10  64 CALM      30.29S
6HR MIN TEMP:  18; 6HR MAX TEMP:  34;

SOCORRO        FAIR      23  11  62 CALM      30.30S
6HR MIN TEMP:  22; 6HR MAX TEMP:  37;


$$
NMZ524>526-539-540-280700-
SOUTHCENTRAL MOUNTAINS

CITY           SKY/WX    TMP DP  RH WIND       PRES   REMARKS
RUIDOSO        NOT AVBL

$$
NMZ527>531-280700-
NORTHEAST HIGHLANDS/NORTHEAST PLAINS

CITY           SKY/WX    TMP DP  RH WIND       PRES   REMARKS
LAS VEGAS      PTCLDY    16   7  67 W5        30.08F WCI   9
6HR MIN TEMP:  10; 6HR MAX TEMP:  21;

RATON          FOG        4   1  88 NE5       30.08F VSB 1/2 WCI  -5
6HR MIN TEMP:   2; 6HR MAX TEMP:  11;

CLAYTON        PTCLDY    17  13  84 SW10      30.12F WCI   5
6HR MIN TEMP:  12; 6HR MAX TEMP:  26;


$$
NMZ532>537-280700-
EASTCENTRAL PLAINS

CITY           SKY/WX    TMP DP  RH WIND       PRES   REMARKS
TUCUMCARI      CLEAR     22  16  78 VRB6      30.17F WCI  14
6HR MIN TEMP:  14; 6HR MAX TEMP:  25;

CANNON AFB     CLEAR     19  13  76 CALM      30.22F
6HR MIN TEMP:  19; 6HR MAX TEMP:  32;

CLOVIS AIRPORT CLEAR     16  10  79 SW10      30.22F WCI   3

$$
NMZ028-029-538-280700-
SOUTHEAST PLAINS

CITY           SKY/WX    TMP DP  RH WIND       PRES   REMARKS
ROSWELL        CLEAR     24  17  74 W6        30.26F WCI  17
6HR MIN TEMP:  24; 6HR MAX TEMP:  38;

ARTESIA        CLEAR     27  23  86 W10       30.29R WCI  17
CARLSBAD       CLEAR     30  26  85 SW7       30.28S WCI  23
6HR MIN TEMP:  30; 6HR MAX TEMP:  36;

HOBBS          PTCLDY    28  28 100 CALM      30.29R


$$


USA.gov is the U.S. government's official web portal to all federal, state and local government web resources and services.